[[{"header":{"parameterUnit":"m.s-1","parameterCategory":1,"la1":30.2992,"la2":30.254,"lo1":-89.0895,"lo2":-89.0443,"dy":0.0025,"dx":0.0025,"nx":19,"ny":19,"refTime":"2026-03-17T03:00:00:Z","depth":0,"parameterNumber":2,"parameterNumberName":"U-component_of_WINDS"},"data":[0,0,0,0.5066,0.5064,0.4997,0.4996,0.4901,0.49,0,0,0,0,0,0,0,0,0,0,0,0.5082,0.5081,0.5066,0.5064,0.4997,0.4996,0.4902,0.49,0,0,0,0,0,0,0,0,0,0,0,0.5082,0.5081,0.508,0.5064,0.4997,0.4996,0.4902,0.4955,0,0,0,0,0,0,0,0,0,0,0.5022,0.5033,0.5081,0.508,0.5063,0.4997,0.4996,0.4958,0.4952,0.4929,0,0.4908,0,0.4903,0.4894,0.4893,0,0,0,0.5066,0.5038,0.5024,0.508,0.5063,0.4997,0.5028,0.4955,0.4948,0.4921,0.4907,0.4903,0.4901,0.4893,0.4893,0.4754,0.4754,0,0,0.507,0.5067,0.5029,0.5019,0.5031,0.503,0.5025,0.4951,0.4935,0.4906,0.4901,0.49,0.4892,0.4892,0.4755,0.4754,0,0,0,0.5079,0.5069,0.5057,0.5023,0.5012,0.5028,0.5023,0.4938,0.4935,0.49,0.4899,0.4892,0.4891,0.4756,0.4755,0.4714,0,0,0,0.5081,0.5074,0.5058,0.5056,0.5013,0.4974,0.5012,0.494,0.4931,0.4899,0.4892,0.489,0.4757,0.4755,0.4717,0.4694,0,0,0,0.5087,0.5075,0.5064,0.5056,0.5027,0.4976,0.4968,0.4938,0.493,0.4893,0.4889,0.4757,0.4756,0.472,0.4699,0.4657,0,0,0,0.5092,0.5028,0.5064,0.4992,0.5027,0.4952,0.4968,0.4912,0.4876,0.4891,0.4757,0.4755,0.4721,0.4701,0.466,0.462,0.4604,0,0,0.5009,0.5018,0.4976,0.5006,0.4924,0.4963,0.4874,0.4843,0.4841,0.4783,0.478,0.4716,0.4699,0.4658,0.4516,0.4503,0,0,0,0.4948,0.4918,0.4897,0.4864,0.484,0.4818,0.4801,0.479,0.4741,0.4812,0.4691,0.4681,0.4656,0.4637,0.4626,0.4605,0.4747,0.4747,0.4747,0.4824,0.4829,0.4759,0.4756,0.4723,0.4708,0.4682,0.4664,0.4676,0.4648,0.4629,0.4543,0.4521,0.4513,0.4491,0.461,0.461,0.461,0.461,0.4702,0.4659,0.468,0.462,0.4625,0.4574,0.4558,0.4569,0.4522,0.4557,0.4536,0.4572,0.4499,0.448,0.4607,0.4607,0.4608,0.4608,0.4608,0.4619,0.46,0.4589,0.4543,0.4506,0.4505,0.446,0.4466,0.447,0.445,0.4431,0.4432,0.4432,0.4441,0.4441,0.444,0.444,0.444,0.444,0.4537,0.4527,0.4488,0.446,0.4441,0.4415,0.4402,0.4382,0.4361,0.4369,0.4369,0.4383,0.4492,0.4518,0.4435,0.4436,0.4437,0.4437,0.4437,0.4408,0.4439,0.4379,0.436,0.4328,0.4292,0.4302,0.4261,0.4246,0.4223,0.4244,0.4324,0.4332,0.4341,0.4362,0.4244,0.4244,0.4244,0.4244,0.4337,0.4343,0.4285,0.4253,0.4223,0.4227,0.4159,0.4149,0.4142,0.4133,0.4152,0.4182,0.4191,0.4194,0.4206,0.4226,0.4075,0.4075,0.4075,0.4257,0.4261,0.4202,0.4199,0.4175,0.4155,0.4091,0.4053,0.4053,0.4068,0.4126,0.4133,0.4181,0.4197,0.421,0.4229,0.4266,0,0]},{"header":{"parameterUnit":"m.s-1","parameterCategory":1,"la1":30.2992,"la2":30.254,"lo1":-89.0895,"lo2":-89.0443,"dy":0.0025,"dx":0.0025,"nx":19,"ny":19,"refTime":"2026-03-17T03:00:00:Z","depth":0,"parameterNumber":3,"parameterNumberName":"V-component_of_WINDS"},"data":[0,0,0,-6.772,-6.7725,-6.7944,-6.7944,-6.8239,-6.8242,0,0,0,0,0,0,0,0,0,0,0,-6.7668,-6.7671,-6.7719,-6.7725,-6.7944,-6.7945,-6.8238,-6.8242,0,0,0,0,0,0,0,0,0,0,0,-6.7667,-6.767,-6.7673,-6.7726,-6.7944,-6.7945,-6.8238,-6.8066,0,0,0,0,0,0,0,0,0,0,-6.7851,-6.7817,-6.7669,-6.7673,-6.7728,-6.7943,-6.7945,-6.8058,-6.8077,-6.8147,0,-6.8216,0,-6.8234,-6.8263,-6.8264,0,0,0,-6.7715,-6.7801,-6.7849,-6.7674,-6.773,-6.7943,-6.7842,-6.8068,-6.809,-6.8173,-6.822,-6.8231,-6.8239,-6.8265,-6.8266,-6.8712,-6.8715,0,0,-6.7703,-6.7714,-6.7834,-6.7864,-6.7835,-6.7835,-6.7849,-6.8081,-6.8133,-6.8221,-6.8237,-6.8244,-6.8267,-6.8269,-6.871,-6.8713,0,0,0,-6.7675,-6.7706,-6.7747,-6.7852,-6.789,-6.7842,-6.7858,-6.8122,-6.8135,-6.824,-6.8247,-6.8268,-6.8272,-6.8707,-6.8711,-6.8849,0,0,0,-6.7667,-6.769,-6.7742,-6.7751,-6.7887,-6.801,-6.7894,-6.8119,-6.8145,-6.8246,-6.8269,-6.8275,-6.8704,-6.8709,-6.8839,-6.8912,0,0,0,-6.7649,-6.7687,-6.7724,-6.7751,-6.7846,-6.8006,-6.8032,-6.8124,-6.815,-6.8264,-6.8276,-6.8702,-6.8708,-6.8831,-6.8898,-6.9032,0,0,0,-6.7632,-6.7843,-6.7726,-6.7964,-6.7844,-6.8091,-6.803,-6.8213,-6.8327,-6.827,-6.8705,-6.8711,-6.8828,-6.8889,-6.9023,-6.9147,-6.92,0,0,-6.7904,-6.7876,-6.8015,-6.7917,-6.8188,-6.8057,-6.8347,-6.844,-6.8439,-6.862,-6.8631,-6.8843,-6.8897,-6.903,-6.9495,-6.9537,0,0,0,-6.8105,-6.8205,-6.8274,-6.8385,-6.8463,-6.8534,-6.8582,-6.8616,-6.877,-6.8536,-6.8928,-6.8959,-6.9037,-6.9096,-6.9132,-6.9196,-6.8739,-6.8738,-6.8737,-6.8505,-6.8494,-6.8722,-6.8738,-6.8846,-6.8893,-6.8978,-6.9031,-6.8988,-6.908,-6.9134,-6.9418,-6.9487,-6.9514,-6.9581,-6.9199,-6.92,-6.92,-6.92,-6.8901,-6.904,-6.8978,-6.9177,-6.9163,-6.9328,-6.938,-6.9344,-6.9493,-6.9377,-6.9444,-6.9317,-6.956,-6.9619,-6.9211,-6.9209,-6.9208,-6.9207,-6.9206,-6.9162,-6.9226,-6.9265,-6.9423,-6.9545,-6.9551,-6.9698,-6.9679,-6.9662,-6.973,-6.9783,-6.978,-6.9774,-6.9756,-6.9757,-6.9758,-6.9759,-6.976,-6.9761,-6.9416,-6.9456,-6.9583,-6.9683,-6.975,-6.9836,-6.9883,-6.9948,-7.0014,-6.9989,-6.9989,-6.9935,-6.9587,-6.9499,-6.9776,-6.9773,-6.9771,-6.977,-6.9769,-6.9821,-6.9726,-6.9923,-6.9991,-7.0104,-7.0224,-7.0199,-7.0332,-7.0382,-7.0454,-7.0386,-7.0132,-7.0101,-7.0072,-6.9999,-7.0389,-7.0389,-7.0389,-7.0389,-7.004,-7.0022,-7.0219,-7.0328,-7.0432,-7.0428,-7.0647,-7.0685,-7.0708,-7.0738,-7.0678,-7.058,-7.0552,-7.0538,-7.0499,-7.0431,-7.0921,-7.0921,-7.0922,-7.0287,-7.0279,-7.0471,-7.0495,-7.0581,-7.0654,-7.0859,-7.0983,-7.0989,-7.0943,-7.076,-7.0737,-7.0579,-7.0528,-7.0478,-7.0418,-7.0292,0,0]}]]